Location: Appeville
(49.3218°N, 1.3427°W)
Time: 14:16:31
(UTC+00:00)

SMAP - Pass Details

Date: 08 December 2019
Orbit: 681 x 684 km, 98.1° (Epoch: 17 January)

Event Time Altitude Azimuth Distance (km) Brightness Sun altitude
Rises 06:29:56 0° 14° (NNE) 3,059 6.4 -11.9°
Reaches altitude 10° 06:32:11 10° 16° (NNE) 2,139 5.6 -11.6°
Maximum altitude 06:36:53 80° 104° (ESE) 700 3.2 -10.9°
Drops below altitude 10° 06:41:31 10° 191° (SSW) 2,120 5.8 -10.2°
Sets 06:43:45 0° 193° (SSW) 3,030 6.5 -9.8°
